Home   Weather   Cobar   Past weeks

Flag for Australia Past Weather in Cobar, New South Wales, Australia — Yesterday and Last 2 Weeks

Now
95 °F

Extremely hot.


Feels Like: 92 °F
Forecast: 78 / 91 °F
Wind: 3 mph from Northeast

Location: Cobar

Current Time: Jan 20, 2017 at 12:26:20 am

Latest Report: Jan 19, 2017 at 10:00 pm


Visibility: N/A

Pressure: 29.58 "Hg

Humidity: 22%

Dew Point: 50 °F

Location of CobarLocation

Past Weather in Cobar — Graph

°F

Cobar Temperature Yesterday

Maximum temperature yesterday: 105 °F (at 6:00 pm)
Minimum temperature yesterday: 77 °F (at 6:00 am)
Average temperature yesterday: 91 °F

High & Low Weather Summary for the Past Weeks

 TemperatureHumidityPressure
High111 °F (Jan 13, 3:00 pm)99% (Jan 11, 1:00 pm)29.93 "Hg (Jan 11, 1:00 pm)
Low63 °F (Jan 15, 6:00 am)8% (Jan 15, 6:00 pm)29.50 "Hg (Jan 13, 4:00 pm)
Average89 °F28%29.76 "Hg
* Reported Jan 4 10:00 pm — Jan 19 10:00 pm, Cobar, Weather by CustomWeather, © 2017

Note: Actual official high and low records may vary slightly from our data, if they occured in-between our weather recording intervals... More about our weather records

Advertising

Cobar Weather History for the Previous 24 Hours

Scroll right to see more
 ConditionsComfort  
Time TempWeatherWind HumidityBarometerVisibility
10:00 pm
Thu, Jan 19
95 °FExtremely hot.3 mph22%29.58 "HgN/A
9:00 pm97 °FPassing clouds.3 mph21%29.57 "HgN/A
7:00 pm103 °FExtremely hot.8 mph16%29.56 "HgN/A
6:00 pm105 °FPassing clouds.8 mph15%29.57 "HgN/A
4:00 pm104 °FExtremely hot.7 mph16%29.63 "HgN/A
3:00 pm101 °FScattered clouds.7 mph18%29.67 "HgN/A
1:00 pm101 °FExtremely hot.5 mph18%29.73 "HgN/A
12:00 pm97 °FExtremely hot.3 mph21%29.75 "HgN/A
10:00 am87 °FPleasantly warm.7 mph27%29.78 "HgN/A
9:00 am86 °FPleasantly warm.10 mph26%29.78 "HgN/A
7:00 am78 °FPleasantly warm.6 mph38%29.76 "HgN/A
6:00 am77 °FOvercast.3 mph40%29.76 "HgN/A
4:00 am80 °FWarm.6 mph43%29.74 "HgN/A
3:00 am80 °FPassing clouds.7 mph68%29.75 "HgN/A
1:00 am82 °FWarm.6 mph66%29.76 "HgN/A
12:00 am84 °FPassing clouds.2 mph62%29.78 "HgN/A
Weather by CustomWeather, © 2017

See weather overviewHow to use our weather pages